Content
SEND FEEDBACK

Daily
Averages
Monthly
Summary
United States of America

PRINCETON, NEW JERSEY


Home > North America > United States > New Jersey
Elevation: 60 feet     Latitude: 40 20N     Longitude: 074 40W

WEATHER
 
SELECT A DAY
Number of Records: 186,709;   Date Range: 1/1/95 - 7/7/14
 
SHARE

PRINT THIS DATA

[ ← Previous Day ]
WEATHER ALMANAC - JANUARY 31, 2013
[ Next Day → ]
[ °C ]   °F
Weather ElementAverageHighLow
Temperature47.4 °F62.6 °F (1:34 am)28.9 °F (10:53 pm)
Dewpoint34.9 °F57.9 °F (1:53 am)10 °F (10:53 pm)
Humidity64.2 %90 % (3:48 am)37 % (1:53 pm)
Barometer29.38 in29.83 in (11:53 pm)29.08 in (2:53 am)
Wind Speed18.8 mph33.4 mph (3:27 am)
Wind Gust52.9 mph (3:27 am)
Weather ElementAverage
Visibility7.8 mi
Wind DirectionW (274.2 °)

Weather ElementTotal
Precipitation1.95 in
Heating Degree Days19.3 (Base 65)
Averaged from 31 records on January 31, 2013
WEATHER CONDITIONS BREAKOUT
WIND DIRECTION BREAKOUT
WEATHER BY HOUR - JANUARY 31, 2013
[ °C ]   °F
Local TimeTemperatureDewpointHumidityBarometerVisibilityWind DirectionWind SpeedGust SpeedPrecipitationEventsConditions
1:34 AM62.6 °F57.2 °F82 %29.18 in9.0 miSSW (200°)29.9 mph40.3 mph0.06 inRainLight Rain
1:53 AM62.1 °F57.9 °F86 %29.14 in6.0 miSSW (200°)25.3 mph42.6 mph0.07 inRainLight Rain
2:53 AM62.1 °F57.9 °F86 %29.08 in6.0 miSSW (210°)27.6 mph43.7 mph0.09 inRainLight Rain
3:07 AM62.6 °F57.2 °F82 %29.09 in3.0 miSSW (210°)26.5 mph42.6 mph0.05 inRainRain
3:27 AM62.6 °F57.2 °F82 %29.14 in2.5 miSW (230°)33.4 mph52.9 mph0.15 inRainHeavy Rain
3:30 AM62.6 °F57.2 °F82 %29.16 in1.8 miWSW (250°)25.3 mph52.9 mph0.27 inRainHeavy Rain
3:40 AM60.8 °F57.2 °F88 %29.16 in2.0 miWest (260°)17.3 mph33.4 mph0.34 inRainRain
3:47 AM60.8 °F57.2 °F88 %29.16 in4.0 miWest (260°)12.7 mph26.5 mph0.37 inRainRain
3:48 AM61.0 °F57.9 °F90 %29.14 in5.0 miWest (260°)13.8 mph26.5 mph0.37 inRainRain
4:53 AM57.0 °F54.0 °F89 %29.09 in6.0 miSSW (210°)11.5 mph0.11 inRainRain
5:43 AM57.2 °F53.6 °F88 %29.09 in10.0 miSW (220°)19.6 mph31.1 mph0.00 inMostly Cloudy
5:53 AM55.9 °F52.0 °F87 %29.12 in4.0 miWest (280°)17.3 mph33.4 mph0.05 inRainLight Rain
6:17 AM50.0 °F44.6 °F82 %29.20 in6.0 miNW (320°)23.0 mph39.1 mph0.00 inRainLight Rain
6:31 AM46.4 °F41.0 °F81 %29.22 in8.0 miNW (320°)18.4 mph34.5 mph0.01 inRainLight Rain
6:53 AM46.9 °F37.9 °F71 %29.22 in10.0 miNW (320°)18.4 mph32.2 mph0.01 inOvercast
7:53 AM46.0 °F30.0 °F54 %29.30 in10.0 miWNW (300°)24.2 mph36.8 mphOvercast
8:53 AM44.1 °F28.0 °F53 %29.37 in10.0 miNW (310°)19.6 mph33.4 mphMostly Cloudy
9:53 AM43.0 °F25.0 °F49 %29.42 in10.0 miNW (310°)18.4 mph33.4 mphPartly Cloudy
10:53 AM42.1 °F21.9 °F45 %29.46 in10.0 miWNW (300°)18.4 mph41.4 mphOvercast
12:53 PM43.0 °F19.9 °F40 %29.48 in10.0 miWNW (290°)16.1 mph28.8 mphPartly Cloudy
1:53 PM42.1 °F17.1 °F37 %29.51 in10.0 miWNW (290°)18.4 mph38.0 mphPartly Cloudy
2:53 PM41.0 °F18.0 °F40 %29.55 in10.0 miWNW (300°)18.4 mph32.2 mphMostly Cloudy
3:53 PM39.9 °F17.1 °F40 %29.60 in10.0 miWest (280°)21.9 mph33.4 mphMostly Cloudy
4:53 PM36.0 °F14.0 °F41 %29.65 in10.0 miWNW (300°)17.3 mph27.6 mphPartly Cloudy
5:53 PM35.1 °F12.9 °F40 %29.70 in10.0 miWNW (300°)17.3 mph29.9 mphClear
6:53 PM34.0 °F15.1 °F46 %29.72 in10.0 miWNW (290°)9.2 mphClear
7:53 PM32.0 °F18.0 °F56 %29.75 in10.0 miNW (310°)15.0 mph26.5 mphMostly Cloudy
8:53 PM32.0 °F14.0 °F48 %29.78 in10.0 miNW (310°)13.8 mph19.6 mphOvercast
9:53 PM30.0 °F12.0 °F47 %29.80 in10.0 miWNW (290°)13.8 mph20.7 mphScattered Clouds
10:53 PM28.9 °F10.0 °F45 %29.81 in10.0 miWNW (290°)11.5 mph18.4 mphClear
11:53 PM28.9 °F10.0 °F45 %29.83 in10.0 miWest (280°)9.2 mph16.1 mphClear
Hourly data recorded from KTTN, located miles away from Princeton, New Jersey







STORIES FROM OUR PARTNERS